Погода в Ржищеве

Украина / Киевская область     49°57′42″N   31°02′36″E
темп.,
°C
ветер,
м/с
пор.,
м/с
влажн.,
%
обл.,
%
осадки,
мм/ч
давл.,
гПа
погр.,
м
15 апреля, чт
чт1500:00+10з1171100 0.0 101310
03:00+9ссв2273100 0.0 101324
06:00+8вюв2380100 0.0 101264
09:00+11юв2375100 0.4 1012264
12:00+11вюв2274100 1.4 1011476
15:00+10св1184100 3.6 1012134
18:00+10сз2282100 0.4 1011213
21:00+9сз239096 0.4 101183
16 апреля, пт
пт1600:00+8з2493100 0.2 1011192
03:00+7зюз3591100 0.5 1011301
06:00+6зюз369184 0.1 1011360
09:00+7юз458593 0.1 1012594
12:00+6юз458998 0.0 1013577
15:00+7юз4581100 0.1 1014695
18:00+6зюз4585100 0.0 1015683
21:00+4з4593100 0.1 1017593
17 апреля, сб
сб1700:00+4з3587100 0.1 1017653
03:00+4зюз3685100 0.1 1018431
06:00+4юз3584100 0.0 1019368
09:00+5юз3380100 0.0 1020659
12:00+6юз2374100 0.1 1020822
15:00+7юз437787 0.3 1021805
18:00+6зюз337664 0.1 1021569
21:00+4зюз359113 0.1 1021104
18 апреля, вс
вс1800:00+3з34925 0.0 102166
03:00+2з339033 0.0 102050
06:00+2з229030 0.0 102021
09:00+7зюз11725 0.0 1020359
12:00+11зсз11575 0.0 1020966
15:00+13ссв11496 0.0 10191451
18:00+13всв235197 0.0 10191533
21:00+10всв257497 0.0 1020146
19 апреля, пн
пн1900:00+9вюв237897 0.1 102072
03:00+9всв2279100 0.1 101943
06:00+8всв3588100 0.1 1019194
09:00+9в4684100 0.1 1020388
12:00+11в5670100 0.3 10191088
15:00+13всв6655100 0.6 10181657
18:00+12всв696567 0.1 10171377
21:00+9всв71473100 0.1 1015638